Location: Artiguedieu
(43.5000°N, 0.5454°E)
Time: 20:23:58
(UTC+00:00)

Transit 2A - Pass Details

Date: 27 July 2021
Orbit: 594 x 964 km, 66.7° (Epoch: 28 September)

Event Time Altitude Azimuth Distance (km) Brightness Sun altitude
Rises 15:02:23 0° 335° (NNW) 3,186 9.3 45.5°
Reaches altitude 10° 15:04:53 10° 345° (NNW) 2,320 8.6 45.1°
Maximum altitude 15:09:44 34° 49° (NE) 1,338 7.2 44.3°
Drops below altitude 10° 15:15:01 10° 114° (ESE) 2,534 8.4 43.4°
Sets 15:17:51 0° 123° (ESE) 3,522 9.1 42.9°
